Regional Weather Roundup
Issued by NWS Upton, NY

Current Version | Previous Version | Graphics & Text | Print | Product List | Glossary Off
Versions: 1 2 3 4 5 6 7 8 9 10 11 12 13 14 15 16 17 18 19 20 21 22 23 24 25 26 27

000
ASUS41 KOKX 010204
RWROKX

REGIONAL WEATHER ROUNDUP
NATIONAL WEATHER SERVICE NEW YORK NY
1000 PM EDT SAT APR 30 2016

NOTE: "FAIR" INDICATES FEW OR NO CLOUDS BELOW 12,000 FEET WITH NO
SIGNIFICANT WEATHER AND/OR OBSTRUCTIONS TO VISIBILITY.

NYZ071-072-176-178-NJZ106-104-010300-
NEW YORK CITY METRO AREA


CITY           SKY/WX    TMP DP  RH WIND       PRES   REMARKS
CENTRAL PARK   CLEAR     51  36  56 SE8       30.26F
LAGUARDIA APRT PTCLDY    51  38  60 S8        30.24S
KENNEDY INTL   PTCLDY    49  37  63 SE8       30.26F
NEWARK/LIBERTY PTCLDY    53  39  59 VRB6      30.24S
BRNX BOT. GARD   N/A     48  37  66 S3        30.24S
TETERBORO      CLEAR     52  32  46 SE3       30.22F
$$

NYZ177-179-078>081-010300-
LONG ISLAND NEW YORK

CITY           SKY/WX    TMP DP  RH WIND       PRES   REMARKS
FARMINGDALE    CLEAR     47  38  71 SE7       30.25F
ISLIP          PTCLDY    47  37  68 SE7       30.25F
SHIRLEY        CLEAR     45  36  70 SE3       30.27S
RIVERHEAD        N/A     45  39  81 S1        30.26F
WESTHAMPTON    CLEAR     38  35  89 SE3       30.29R
EAST HAMPTON   FAIR      43  36  74 CALM      30.27S
MONTAUK POINT    N/A     43  35  73 CALM      30.29S
$$

NYZ052-065-067-010300-
HUDSON VALLEY

CITY           SKY/WX    TMP DP  RH WIND       PRES   REMARKS
WHITE PLAINS   CLEAR     46  37  71 SE7       30.23F
NEWBURGH       PTCLDY    54  36  50 CALM      30.21S
MONTGOMERY     CLEAR     51  42  71 SW5       30.20R
POUGHKEEPSIE   CLEAR     56  36  47 SE5       30.20R
ALBANY         MOCLDY    58  38  47 S3        30.17S
$$

NJZ001-105-106-008-010-013-015-019>022-104-010300-
NEW JERSEY

CITY           SKY/WX    TMP DP  RH WIND       PRES   REMARKS
NEWARK/LIBERTY PTCLDY    53  39  59 VRB6      30.24S
TETERBORO      CLEAR     52  32  46 SE3       30.22F
CALDWELL       CLEAR     51  32  48 CALM      30.23S
MORRISTOWN     CLEAR     46  37  71 CALM      30.23S
SOMERVILLE     CLEAR     49  35  58 SE3       30.21S
SUSSEX         CLEAR     49  41  74 CALM      30.22S
ANDOVER          N/A     51  40  65 VRB3      30.21S
TRENTON        CLEAR     50  35  56 S6        30.23R
MILLVILLE      CLOUDY    49  38  65 CALM      30.25R
ATLANTIC CITY  CLOUDY    48  39  71 SE5       30.24S
WRIGHTSTOWN    PTCLDY    45  36  70 E2        30.22R
TOMS RIVER     CLEAR     39  34  81 CALM      30.26R
BELMAR         CLEAR     46  37  71 SE5       30.25F
$$

PAZ047>061-062-071-010300-
EASTERN PENNSYLVANIA

CITY           SKY/WX    TMP DP  RH WIND       PRES   REMARKS
PHILADELPHIA   CLOUDY    54  33  45 SE7       30.24R
ALLENTOWN      CLOUDY    57  41  55 SE5       30.20S
SCRANTON       CLOUDY    53  41  63 S3        30.19R
$$

CTZ002-004>006-009-010-012-RIZ004-006-007-MAZ004-011-015-010300-
SOUTHERN NEW ENGLAND
 IN CT

CITY           SKY/WX    TMP DP  RH WIND       PRES   REMARKS
BRADLEY INTL   CLEAR     50  29  44 S13       30.23R
HARTFORD       CLEAR     50  32  50 S10       30.25R
DANBURY        CLEAR     49  37  63 S5        30.24S
WTRBRY/OXFORD    N/A     46  34  61 S7        30.26S
BRIDGEPORT     CLEAR     50  39  66 S7        30.26S
MERIDEN        CLEAR     49  35  58 S5        30.26R
NEW HAVEN      CLEAR     47  35  63 S9        30.27R
CHESTER        FAIR      45  36  70 S5        30.27R
GROTON         CLEAR     46  41  82 S8        30.27S
WILLIMANTIC    PTCLDY    48  35  60 S6        30.26R

 IN RI

CITY           SKY/WX    TMP DP  RH WIND       PRES   REMARKS
PROVIDENCE     MOCLDY    45  35  68 SW7       30.27S
BLOCK ISLAND   CLEAR     44  35  70 S3          N/A
WESTERLY       CLEAR     46  34  62 S3        30.28S

 IN MA

CITY           SKY/WX    TMP DP  RH WIND       PRES   REMARKS
BOSTON         PTCLDY    48  34  58 S13       30.25S
WORCESTER      CLEAR     47  30  51 SW15      30.22S
WESTFIELD      CLEAR     51  33  50 S13       30.22R
PROVINCETOWN   CLEAR     45  34  65 SW8       30.28S
NANTUCKET      PTCLDY    40  34  79 CALM      30.27R
$$

ANZ330-335-338-340-345-350-353-355-010300-
COASTAL MARINE OBSERVATIONS


STATION/POSITION TIME  SKY/WX   TEMP    WIND        PRES    VSBY  WAVE
                                AIR SEA DIR/SP/G                  HT/PER
                 (UTC)          (F)     (DEG/KT/KT) (MB)    (MI)  (FT/S)
NY HARB ENTRANCE 0050            49 51  160/  8/ 10 1024.1          4/ 8
20S FIRE ISLAND  0050            47 49  140/  6/  8 1024.6          4/ 7
GREAT SOUTH BAY  0115            48 57  190/  8/ 10   N/A
23 SSW MONTAUK P 0150            46 48  150/  6/  6 1025.0          5/ 7
15 E BARNEGAT LI 0122               51                N/A           5/ 8
HUDSON CANYON    0050            48 48              1024.5          6/ 8
KINGS POINT      0100            50 55              1024.0
EXECUTION ROCKS  NOT AVBL
CENTRAL LI SOUND 0100            48     170/ 10/ 12   N/A           1/ 2
EASTERN LI SOUND 0100            47 47  170/  8/ 10   N/A
ROBBINS REEF     0100            53     140/ 10/ 11 1023.3
$$


>>>>>>>>>>>>>>>>>>>>>>>>>>>> KEY <<<<<<<<<<<<<<<<<<<<<<<<<<<
>                                                          <
>     SKY/WX - SKY CONDITION/PRESENT WEATHER               <
>     TMP    - TEMPERATURE IN FAHRENHEIT                   <
>     DP     - DEWPOINT IN FAHRENHEIT                      <
>     RH     - RELATIVE HUMIDITY IN PERCENT                <
>     WIND   - DIRECTION AND SPEED IN MPH                  <
>     PRES   - MEAN SEA LEVEL PRESSURE IN INCHES OF HG     <
>     WCI    - WIND CHILL INDEX                            <
>     VSB    - VISIBILITY IN MILES                         <
>     HX     - HEAT INDEX                                  <
>     TC     - TEMPERATURE IN CELSIUS                      <
>     VRB    - VARIABLE WIND DIRECTION                     <
>                                                          <
>>>>>>>>>>>>>>>>>>>>>>>>>>>> KEY <<<<<<<<<<<<<<<<<<<<<<<<<<<






USA.gov is the U.S. government's official web portal to all federal, state and local government web resources and services.